Weather History for Uvalde, TX

Change the Weather History Date:

Monday, July 1, 2013

  Actual Average (KHDO) Record (KHDO)
Temperature  
Mean Temperature 79 °F -  
Max Temperature 88 °F 90 °F 98 °F (1996)
Min Temperature 70 °F 70 °F 68 °F (2008)
Cooling Degree Days 14    
Growing Degree Days 29 (Base 50)    
Moisture  
Dew Point 61 °F    
Average Humidity 58    
Maximum Humidity 88    
Minimum Humidity 33    
Precipitation  
Precipitation 0.00 in - - ()
Sea Level Pressure  
Sea Level Pressure 29.99 in    
Wind  
Wind Speed 3 mph (NE)    
Max Wind Speed 15 mph    
Max Gust Speed 22 mph    
Visibility 10 miles    
Events Rain    
Averages and records for this station are not official NWS values.
T = Trace of Precipitation, MM = Missing Value Source: NWS Daily Summary

Daily Weather History Graph

Daily Weather History Graph

Search for Another Location

Airport:

Trip Planner

Search our weather history database for the weather conditions in past years. The results will help you decide how hot, cold, wet, or windy it might be!

Date:

Astronomy

Jul. 01, 2013 Rise Set
Actual Time 6:43 AM CDT 8:42 PM CDT
Civil Twilight 6:16 AM CDT 9:09 PM CDT
Nautical Twilight 5:43 AM CDT 9:42 PM CDT
Astronomical Twilight 5:08 AM CDT 10:16 PM CDT
Moon 1:57 AM CDT (7/1) 3:13 PM CDT (7/1)
Length of Visible Light 14h 52m
Length of Day
13h 58m
Waning Crescent, 35% of the Moon is Illuminated
Jul 1
Waning Crescent
Jul 8
New
Jul 15
First Quarter
Jul 22
Full
Jul 29
Last Quarter

Hourly Weather History & Observations

Time (CDT) Temp. Heat Index Dew Point Humidity Pressure Visibility Wind Dir Wind Speed Gust Speed Precip Events Conditions
12:15 AM 77.9 °F - 68.0 °F 71% 29.92 in 10.0 mi Calm Calm - N/A   Clear
12:35 AM 75.4 °F - 68.0 °F 78% 29.92 in 10.0 mi Calm Calm - N/A   Clear
12:55 AM 75.2 °F - 68.5 °F 80% 29.91 in 10.0 mi Calm Calm - N/A   Clear
1:15 AM 75.4 °F - 68.7 °F 80% 29.91 in 10.0 mi Calm Calm - N/A   Clear
1:35 AM 74.3 °F - 67.6 °F 80% 29.91 in 10.0 mi Calm Calm - N/A   Clear
1:55 AM 72.9 °F - 66.9 °F 82% 29.91 in 10.0 mi Calm Calm - N/A   Clear
2:15 AM 72.9 °F - 67.1 °F 82% 29.91 in 10.0 mi Calm Calm - N/A   Clear
2:35 AM 72.9 °F - 67.8 °F 84% 29.91 in 10.0 mi Calm Calm - N/A   Clear
2:55 AM 72.9 °F - 68.2 °F 85% 29.91 in 10.0 mi Calm Calm - N/A   Clear
3:15 AM 72.9 °F - 67.5 °F 83% 29.91 in 10.0 mi Calm Calm - N/A   Clear
3:35 AM 72.9 °F - 68.0 °F 85% 29.92 in 10.0 mi Calm Calm - N/A   Clear
3:55 AM 72.9 °F - 68.0 °F 85% 29.92 in 10.0 mi Calm Calm - N/A   Clear
4:15 AM 70.3 °F - 66.4 °F 87% 29.93 in 10.0 mi Calm Calm - N/A   Clear
4:35 AM 72.0 °F - 68.2 °F 88% 29.93 in 10.0 mi Calm Calm - N/A   Clear
4:55 AM 72.9 °F - 68.7 °F 87% 29.93 in 10.0 mi Calm Calm - N/A   Clear
5:15 AM 72.5 °F - 68.2 °F 86% 29.96 in 7.0 mi East 9.2 mph - N/A   Clear
5:35 AM 72.9 °F - 67.3 °F 83% 29.96 in 10.0 mi East 3.5 mph - N/A   Clear
5:55 AM 72.9 °F - 68.4 °F 86% 29.97 in 10.0 mi Calm Calm - N/A   Clear
6:15 AM 70.3 °F - 66.4 °F 87% 29.97 in 10.0 mi Calm Calm - N/A   Clear
6:35 AM 70.3 °F - 66.0 °F 86% 29.97 in 10.0 mi Calm Calm - N/A   Clear
6:55 AM 72.9 °F - 64.0 °F 74% 29.98 in 10.0 mi NE 8.1 mph - N/A   Clear
7:15 AM 72.9 °F - 63.7 °F 73% 29.98 in 10.0 mi Calm Calm - N/A   Clear
7:35 AM 72.9 °F - 62.4 °F 70% 29.99 in 10.0 mi Calm Calm - N/A   Clear
7:55 AM 72.9 °F - 61.3 °F 67% 29.99 in 10.0 mi NE 10.4 mph - N/A   Clear
8:15 AM 75.4 °F - 61.7 °F 62% 30.00 in 10.0 mi NE 9.2 mph - N/A   Clear
8:35 AM 77.2 °F - 60.1 °F 55% 30.00 in 10.0 mi ENE 9.2 mph - N/A   Clear
8:55 AM 77.9 °F - 57.4 °F 49% 30.01 in 10.0 mi ENE 15.0 mph - N/A   Clear
9:15 AM 79.9 °F - 55.8 °F 43% 30.02 in 10.0 mi East 6.9 mph 18.4 mph N/A   Clear
9:35 AM 80.6 °F 80.5 °F 55.2 °F 42% 30.02 in 10.0 mi ENE 10.4 mph 16.1 mph N/A   Clear
9:55 AM 80.6 °F 80.4 °F 54.5 °F 40% 30.03 in 10.0 mi ENE 3.5 mph - N/A   Clear
10:15 AM 82.4 °F 81.6 °F 54.7 °F 38% 30.03 in 10.0 mi East 12.7 mph 17.3 mph N/A   Clear
10:35 AM 81.7 °F 81.1 °F 54.7 °F 39% 30.04 in 10.0 mi ENE 9.2 mph - N/A   Clear
10:55 AM 85.5 °F 84.3 °F 56.1 °F 37% 30.04 in 10.0 mi ENE 10.4 mph - N/A   Clear
11:15 AM 87.1 °F 85.7 °F 56.7 °F 35% 30.04 in 10.0 mi East 15.0 mph 20.7 mph N/A   Clear
11:35 AM 88.0 °F 86.5 °F 56.5 °F 34% 30.04 in 5.0 mi ENE 12.7 mph - N/A   Haze
11:55 AM 88.0 °F 86.7 °F 57.0 °F 35% 30.04 in 10.0 mi ENE 8.1 mph 18.4 mph N/A   Clear
12:15 PM 87.8 °F 86.7 °F 57.7 °F 36% 30.04 in 10.0 mi ENE 8.1 mph - N/A   Clear
12:35 PM 86.2 °F 85.4 °F 58.5 °F 39% 30.04 in 10.0 mi Calm Calm - N/A   Clear
12:55 PM 88.0 °F 87.6 °F 60.3 °F 39% 30.04 in 10.0 mi Calm Calm - N/A   Clear
1:15 PM 88.0 °F 86.9 °F 57.7 °F 36% 30.03 in 10.0 mi North 12.7 mph 19.6 mph N/A   Clear
1:35 PM 88.0 °F 87.1 °F 58.6 °F 37% 30.03 in 10.0 mi ENE 12.7 mph 16.1 mph N/A   Clear
1:55 PM 88.0 °F 87.1 °F 58.6 °F 37% 30.03 in 10.0 mi North 11.5 mph 16.1 mph N/A   Clear
2:15 PM 88.0 °F 87.1 °F 58.8 °F 37% 30.02 in 10.0 mi NE 11.5 mph - N/A   Clear
2:35 PM 88.0 °F 86.9 °F 57.9 °F 36% 30.01 in 10.0 mi NE 9.2 mph - N/A   Clear
2:55 PM 88.0 °F 86.9 °F 57.6 °F 36% 30.00 in 10.0 mi NNE 15.0 mph 21.9 mph N/A   Clear
3:15 PM 88.0 °F 86.9 °F 57.6 °F 36% 30.01 in 10.0 mi NNE 6.9 mph 17.3 mph N/A   Clear
3:35 PM 85.6 °F 84.1 °F 54.7 °F 35% 30.01 in 10.0 mi NE 12.7 mph 19.6 mph N/A   Clear
3:55 PM 84.4 °F 83.1 °F 54.3 °F 36% 30.01 in 10.0 mi North 11.5 mph 18.4 mph N/A   Clear
4:15 PM 82.6 °F 81.5 °F 53.2 °F 36% 30.01 in 10.0 mi NE 6.9 mph - N/A   Clear
4:35 PM 82.4 °F - 52.2 °F 35% 30.01 in 10.0 mi NNE 12.7 mph - N/A   Clear
4:55 PM 82.0 °F - 50.4 °F 33% 30.02 in 10.0 mi NNE 10.4 mph 19.6 mph N/A   Clear
5:15 PM 82.0 °F - 51.8 °F 35% 30.01 in 10.0 mi NNE 10.4 mph 16.1 mph N/A   Clear
5:35 PM 81.7 °F - 51.4 °F 35% 30.01 in 10.0 mi NNE 8.1 mph - N/A   Clear
5:55 PM 81.0 °F - 51.8 °F 36% 30.01 in 10.0 mi North 8.1 mph - N/A   Clear
6:15 PM 80.6 °F 80.2 °F 53.1 °F 38% 30.01 in 10.0 mi Calm Calm - N/A Rain Light Rain
6:35 PM 79.5 °F - 54.1 °F 41% 30.02 in 10.0 mi Calm Calm - N/A   Clear
6:55 PM 79.2 °F - 54.7 °F 43% 30.02 in 10.0 mi Calm Calm - N/A Rain Light Rain
7:15 PM 75.4 °F - 62.1 °F 63% 30.02 in 10.0 mi Calm Calm - N/A   Light Drizzle
7:35 PM 75.4 °F - 61.2 °F 61% 30.02 in 10.0 mi Calm Calm - N/A   Clear
7:55 PM 75.4 °F - 61.5 °F 62% 30.02 in 10.0 mi Calm Calm - N/A   Clear
8:15 PM 75.4 °F - 61.7 °F 62% 30.02 in 10.0 mi Calm Calm - N/A   Clear
8:35 PM 75.4 °F - 60.8 °F 60% 30.02 in 10.0 mi Calm Calm - N/A   Clear
8:55 PM 75.4 °F - 61.3 °F 62% 30.01 in 10.0 mi Calm Calm - N/A   Clear
9:15 PM 75.4 °F - 61.2 °F 61% 30.01 in 10.0 mi Calm Calm - N/A   Clear
9:35 PM 75.4 °F - 60.8 °F 60% 30.01 in 10.0 mi Calm Calm - N/A   Clear
9:55 PM 73.6 °F - 61.0 °F 65% 30.02 in 10.0 mi Calm Calm - N/A   Clear
10:15 PM 73.6 °F - 61.3 °F 65% 30.02 in 10.0 mi Calm Calm - N/A   Clear
10:35 PM 72.9 °F - 61.0 °F 66% 30.03 in 10.0 mi Calm Calm - N/A   Clear
10:55 PM 72.9 °F - 61.0 °F 66% 30.04 in 10.0 mi Calm Calm - N/A   Clear
11:15 PM 72.9 °F - 61.0 °F 66% 30.04 in 10.0 mi Calm Calm - N/A   Clear
11:35 PM 72.9 °F - 61.3 °F 67% 30.04 in 5.0 mi Calm Calm - N/A   Haze
11:55 PM 72.9 °F - 60.4 °F 65% 30.05 in 10.0 mi Calm Calm - N/A   Clear